Back to catalog

COSMOS 2584

GLONASS

AliveNavigationMEO
NORAD 63130·PAYLOAD·🇷🇺 Russia

Launched Mar 2, 2025 from Plesetsk Cosmodrome

Loading…

Next Passes (next 24 hours)

TLE

FreshSource: CelesTrak SupGP

Epoch: Sep 12, 2026, 23:59 UTC

1 63130C 25042A   26255.99979167  .00000000  00000+0  00000+0 0  2556
2 63130  65.1399  69.8188 0006518 202.9105 240.2713  2.13103580    10

Track COSMOS 2584 in real time with AllMySat

Download on the App Store